| time (UTC) | temp F | wind direction | speed MPH | gust MPH | rain 1hr in | rain 24hr in | rain mn in | humidity % | barometer mb |
| 20260503224536 | 58 | 241 | 8.0 | 14.0 | 0.00 | 0.00 | 0.00 | 83 | 1018.0 |
| 20260503223041 | 58 | 186 | 5.0 | 13.0 | 0.00 | 0.00 | 0.00 | 85 | 1018.1 |
| 20260503221542 | 58 | 261 | 5.0 | 10.0 | 0.00 | 0.00 | 0.00 | 84 | 1018.0 |
| 20260503220042 | 59 | 225 | 6.0 | 10.0 | 0.00 | 0.00 | 0.00 | 86 | 1018.0 |
| 20260503214535 | 58 | 215 | 4.0 | 10.0 | 0.00 | 0.00 | 0.00 | 86 | 1018.0 |
| 20260503213046 | 57 | 256 | 5.0 | 9.0 | 0.00 | 0.00 | 0.00 | 85 | 1018.1 |
| 20260503211542 | 58 | 276 | 2.0 | 9.0 | 0.00 | 0.00 | 0.00 | 84 | 1018.0 |
| 20260503210048 | 58 | 360 | 4.0 | 8.0 | 0.00 | 0.00 | 0.00 | 84 | 1018.0 |
| 20260503204549 | 58 | 235 | 5.0 | 10.0 | 0.00 | 0.00 | 0.00 | 84 | 1018.2 |
| 20260503203038 | 58 | 261 | 6.0 | 10.0 | 0.00 | 0.00 | 0.00 | 84 | 1018.3 |
| 20260503201540 | 59 | 259 | 6.0 | 11.0 | 0.00 | 0.00 | 0.00 | 83 | 1018.2 |
| 20260503200049 | 60 | 266 | 3.0 | 9.0 | 0.00 | 0.00 | 0.00 | 83 | 1018.2 |
| 20260503194546 | 61 | 193 | 5.0 | 9.0 | 0.00 | 0.00 | 0.00 | 85 | 1018.1 |
| 20260503193050 | 60 | 219 | 3.0 | 9.0 | 0.00 | 0.00 | 0.00 | 83 | 1018.2 |
| 20260503191541 | 61 | 266 | 4.0 | 8.0 | 0.00 | 0.00 | 0.00 | 82 | 1018.1 |
| 20260503190042 | 63 | 198 | 6.0 | 10.0 | 0.00 | 0.00 | 0.00 | 83 | 1017.9 |
| 20260503184546 | 63 | 198 | 6.0 | 11.0 | 0.00 | 0.00 | 0.00 | 84 | 1017.9 |
| 20260503183054 | 63 | 188 | 10.0 | 16.0 | 0.00 | 0.00 | 0.00 | 83 | 1018.0 |
| 20260503181543 | 63 | 360 | 10.0 | 18.0 | 0.00 | 0.00 | 0.00 | 83 | 1017.7 |
| 20260503180044 | 63 | 196 | 9.0 | 15.0 | 0.00 | 0.00 | 0.00 | 82 | 1017.8 |
| 20260503174539 | 63 | 191 | 10.0 | 16.0 | 0.00 | 0.00 | 0.00 | 82 | 1017.8 |
| 20260503173105 | 63 | 200 | 10.0 | 20.0 | 0.00 | 0.00 | 0.00 | 80 | 1017.8 |
| 20260503171536 | 64 | 186 | 12.0 | 18.0 | 0.00 | 0.00 | 0.00 | 79 | 1017.8 |
| 20260503081542 | 62 | 150 | 10.0 | 16.0 | 0.00 | 0.00 | 0.00 | 80 | 1020.5 |
| 20260503071539 | 62 | 140 | 8.0 | 12.0 | 0.00 | 0.00 | 0.00 | 79 | 1020.2 |
| 20260503054544 | 54 | 275 | 6.0 | 10.0 | 0.00 | 0.00 | 0.00 | 80 | 1020.0 |
| 20260503053042 | 52 | 265 | 6.0 | 10.0 | 0.00 | 0.00 | 0.00 | 80 | 1020.1 |
| 20260503051542 | 51 | 259 | 7.0 | 10.0 | 0.00 | 0.00 | 0.00 | 80 | 1020.2 |
| 20260503050037 | 50 | 266 | 8.0 | 11.0 | 0.00 | 0.00 | 0.00 | 80 | 1020.0 |
| 20260503044535 | 50 | 257 | 7.0 | 11.0 | 0.00 | 0.00 | 0.00 | 80 | 1020.1 |
| 20260503043043 | 49 | 263 | 7.0 | 12.0 | 0.00 | 0.00 | 0.00 | 80 | 1020.2 |
| 20260503041542 | 49 | 253 | 8.0 | 12.0 | 0.00 | 0.00 | 0.00 | 79 | 1019.9 |
| 20260503040047 | 50 | 273 | 8.0 | 11.0 | 0.00 | 0.00 | 0.00 | 79 | 1019.9 |
| 20260503034554 | 50 | 251 | 8.0 | 11.0 | 0.00 | 0.00 | 0.00 | 79 | 1020.0 |
| 20260503033044 | 50 | 257 | 8.0 | 12.0 | 0.00 | 0.00 | 0.00 | 79 | 1020.2 |
| 20260503031541 | 50 | 250 | 9.0 | 12.0 | 0.00 | 0.00 | 0.00 | 78 | 1020.3 |
| 20260503030052 | 50 | 261 | 8.0 | 12.0 | 0.00 | 0.00 | 0.00 | 78 | 1020.4 |
| 20260503024545 | 50 | 250 | 8.0 | 12.0 | 0.00 | 0.00 | 0.00 | 78 | 1020.5 |
| 20260503023041 | 50 | 247 | 8.0 | 12.0 | 0.00 | 0.00 | 0.00 | 78 | 1020.4 |
| 20260503021543 | 49 | 260 | 9.0 | 12.0 | 0.00 | 0.00 | 0.00 | 78 | 1020.4 |
| 20260503020041 | 50 | 274 | 9.0 | 12.0 | 0.00 | 0.00 | 0.00 | 78 | 1020.4 |
| 20260503014548 | 49 | 257 | 8.0 | 12.0 | 0.00 | 0.00 | 0.00 | 78 | 1020.5 |
| 20260503013042 | 50 | 257 | 8.0 | 12.0 | 0.00 | 0.00 | 0.00 | 78 | 1020.5 |
| 20260503011540 | 50 | 257 | 8.0 | 11.0 | 0.00 | 0.00 | 0.00 | 78 | 1020.6 |
| 20260503010045 | 50 | 261 | 8.0 | 11.0 | 0.00 | 0.00 | 0.00 | 78 | 1020.6 |
| 20260503004546 | 50 | 263 | 8.0 | 12.0 | 0.00 | 0.00 | 0.00 | 78 | 1020.9 |
| 20260503003038 | 50 | 251 | 8.0 | 12.0 | 0.00 | 0.00 | 0.00 | 78 | 1020.8 |
| 20260503001542 | 50 | 252 | 8.0 | 12.0 | 0.00 | 0.00 | 0.00 | 79 | 1021.1 |
| 20260503000042 | 50 | 257 | 8.0 | 12.0 | 0.00 | 0.00 | 0.00 | 79 | 1021.3 |
| 20260502234539 | 50 | 233 | 8.0 | 12.0 | 0.00 | 0.00 | 0.00 | 78 | 1021.3 |
| 20260502233043 | 50 | 269 | 8.0 | 12.0 | 0.00 | 0.00 | 0.00 | 78 | 1021.5 |
| 20260502231538 | 51 | 273 | 8.0 | 11.0 | 0.00 | 0.00 | 0.00 | 78 | 1021.6 |
| 20260502230044 | 51 | 256 | 8.0 | 11.0 | 0.00 | 0.00 | 0.00 | 78 | 1021.6 |